Weather in Omsk

Russia / Omsk Oblast     54˚59′21″N   73˚22′05″E
temp.,
°C
wind,
m/s
gust,
m/s
humid.,
%
clouds,
%
prec.,
mm/h
press.,
hPa
HPBL,
m
2 december, wed
wed200:00−17˚w22900 0.0 105330
03:00−17˚w22920 0.0 105229
06:00−18˚w22940 0.0 105226
09:00−18˚w11960 0.0 105121
12:00−15˚wsw11920 0.0 105067
15:00−15˚sw12922 0.0 104840
18:00−17˚sw11911 0.0 104720
21:00−17˚ssw11910 0.0 104620
3 december, thu
thu300:00−17˚s11910 0.0 104520
03:00−18˚s11930 0.0 104420
06:00−18˚sse11940 0.0 104420
09:00−18˚se11950 0.0 104220
12:00−15˚se12900 0.0 104287
15:00−15˚ese11900 0.0 104139
18:00−17˚ese11890 0.0 104020
21:00−18˚ne11860 0.0 104020
4 december, fri
fri400:00−18˚ese11850 0.0 104020
03:00−18˚nne11850 0.0 103920
06:00−18˚n22850 0.0 103823
09:00−18˚n22890 0.0 103820
12:00−16˚nnw22870 0.0 103880
15:00−15˚nw22890 0.0 103865
18:00−17˚nw22910 0.0 103824
21:00−17˚nnw22920 0.0 103926
5 december, sat
sat500:00−18˚nnw12910 0.0 103922
03:00−18˚nnw22900 0.0 104024
06:00−18˚nnw22890 0.0 104024
09:00−18˚nnw11900 0.0 104021
12:00−15˚nw11860 0.0 104168
15:00−15˚wnw11900 0.0 104138
18:00−17˚wnw12900 0.0 104121
21:00−17˚w12920 0.0 104122
6 december, sun
sun600:00−17˚w22920 0.0 104127
03:00−17˚w23920 0.0 104131
06:00−17˚w23920 0.0 104142
09:00−17˚w339417 0.0 104151
12:00−15˚w359411 0.0 1041162
15:00−14˚wsw24954 0.0 1041134
18:00−16˚w33964 0.0 104154
21:00−16˚w239618 0.0 104138